Flag for Czech Republic Weather past 2 weeks in Liberec, Czech Republic

Now
62 °F

Refreshingly cool.


Feels Like: 62 °F
Forecast: 44 / 66 °F
Wind: 5 mph from South

Location: Liberec

Current Time: May 28, 2015 at 6:38:02 PM

Latest Report: May 28, 2015 at 6:00 PM


Visibility: 13 mi

Pressure: 29.94 "Hg

Humidity: 38%

Dew point: 36 °F

Location of LiberecLocation

Historic Weather in Liberec — Graph

°F

Liberec temperature yesterday

Maximum temperature yesterday: 52 °F (at 3:00 PM)
Minimum temperature yesterday: 41 °F (at 11:00 PM)
Average temperature yesterday: 47 °F

Past Weeks' High & Low Weather Summary

 TemperatureHumidityPressure
High67 °F (May 25, 12:00 PM)98% (May 15, 6:00 AM)30.34 "Hg (May 15, 6:00 AM)
Low31 °F (May 15, 5:00 AM)30% (May 15, 5:00 PM)29.68 "Hg (May 19, 4:00 AM)
Average52 °F68%30.03 "Hg
* Reported May 13 8:00 PM — May 28 5:00 PM, Liberec, Weather by CustomWeather, © 2015

Note: Actual official high and low records may vary slightly from our data, if they occured in-between our weather recording intervals... More about our weather records

Advertising

Liberec weather history for previous 24 hours

 ConditionsComfort  
Time TempWeatherWind HumidityBarometerVisibility
5:00 PM
Thu, May 28
61 °FPartly sunny.5 mph41%29.96 "Hg19 mi
4:00 PM62 °FScattered clouds.5 mph37%29.98 "Hg19 mi
3:00 PM61 °FPartly sunny.5 mph40%29.99 "Hg19 mi
2:00 PM58 °FPartly sunny.6 mph44%30.01 "Hg19 mi
1:00 PM58 °FPartly sunny.2 mph41%30.03 "Hg19 mi
12:00 PM53 °FOvercast.5 mph52%30.07 "Hg19 mi
11:00 AM53 °FOvercast.5 mph51%30.08 "Hg19 mi
10:00 AM53 °FPartly sunny.3 mph56%30.09 "Hg19 mi
9:00 AM52 °FOvercast.1 mph62%30.10 "Hg19 mi
8:00 AM48 °FOvercast.1 mph76%30.11 "Hg16 mi
7:00 AM46 °FCool.1 mph83%30.11 "Hg12 mi
4:00 AM43 °FQuite cool.1 mph90%30.13 "Hg12 mi
3:00 AM41 °FQuite cool.1 mph89%30.14 "Hg10 mi
2:00 AM42 °FQuite cool.1 mph90%30.14 "Hg11 mi
1:00 AM43 °FQuite cool.1 mph90%30.15 "Hg11 mi
12:00 AM39 °FChilly.1 mph91%30.17 "Hg9 mi
11:00 PM
Wed, May 27
41 °FQuite cool.1 mph88%30.16 "Hg8 mi
10:00 PM45 °FPassing clouds.1 mph76%30.15 "Hg16 mi
9:00 PM47 °FPassing clouds.5 mph71%30.14 "Hg19 mi
8:00 PM49 °FOvercast.3 mph68%30.13 "Hg25 mi
7:00 PM50 °FCool.5 mph67%30.13 "Hg12 mi
6:00 PM50 °FCool.3 mph65%30.13 "Hg12 mi
Weather by CustomWeather, © 2015

See weather overviewHow to use our weather pages